Miscellaneous Local Product
Issued by NWS Hastings, NE

Home | Current Version | Previous Version | Text Only | Print | Product List | Glossary Off
Versions: 1 2 3 4 5 6 7 8 9 10 11 12 13 14 15 16 17 18 19 20 21 22 23 24 25 26 27 28 29 30 31 32 33 34 35 36 37 38 39 40 41 42 43 44 45 46 47 48 49 50

000
AXUS43 KGID 030002
MISGRI

GID CWA HOURLY WEATHER ROUNDUP
NATIONAL WEATHER SERVICE HASTINGS NE
700 PM CDT THU JUL 02 2015

NOTE: "FAIR" INDICATES FEW OR NO CLOUDS BELOW 12,000 FEET WITH NO
SIGNIFICANT WEATHER AND/OR OBSTRUCTIONS TO VISIBILITY.

...SOUTH CENTRAL NEBRASKA...

CITY           SKY/WX    TMP DP  RH WIND       PRES   REMARKS
GRAND ISLAND   SUNNY     74  66  76 NE16      29.93R
HASTINGS       MOSUNNY   80  67  64 NE8       29.91S
KEARNEY        SUNNY     82  61  47 N16       29.93R
ORD            MOSUNNY   78  62  57 N15       29.93F
YORK           LGT RAIN  72  68  88 W5        29.93R
AURORA         LGT RAIN  68  68  98 E3        29.92F
LEXINGTON      SUNNY     83  58  42 N13       29.97S
HOLDREGE       SUNNY     82  58  43 NW9G17    29.94F

...NEBRASKA PANHANDLE...

CITY           SKY/WX    TMP DP  RH WIND       PRES   REMARKS
CHADRON        MOSUNNY   79  59  50 NE14      30.06S
ALLIANCE       SUNNY     78  59  51 N6        30.07F
SCOTTSBLUFF    SUNNY     83  55  38 N12       30.08F
SIDNEY         SUNNY     79  54  41 N8        30.11F

...WESTERN AND NORTH CENTRAL NEBRASKA...

CITY           SKY/WX    TMP DP  RH WIND       PRES   REMARKS
VALENTINE      SUNNY     78  61  55 N9        30.00S
AINSWORTH      MOSUNNY   77  60  56 N10       30.00S
ONEILL         PTSUNNY   72  65  79 NE8       29.97F
BROKEN BOW     SUNNY     80  60  50 N10G18    29.96F
IMPERIAL       SUNNY     85  55  35 N10       30.03F
NORTH PLATTE   MOSUNNY   82  57  42 N12       29.99F
MCCOOK         MOSUNNY   86  60  41 N14       29.97F

...EASTERN NEBRASKA...

CITY           SKY/WX    TMP DP  RH WIND       PRES   REMARKS
NORFOLK        LGT RAIN  66  64  93 E10       29.97S FOG
SO SIOUX CITY  CLOUDY    68  60  75 E8        29.97F
TEKAMAH        CLOUDY    71  63  75 E8        29.95F
COLUMBUS       CLOUDY    68  61  77 E9G16     29.94S
ALBION         PTSUNNY   71  63  76 NE10      29.96S
OMAHA EPPLEY   LGT RAIN  70  63  78 E5        29.94F
OFFUTT AFB     MOSUNNY   70  64  79 E8        29.93S
MILLARD        PTSUNNY   70  64  80 E6        29.94S
LINCOLN        CLOUDY    72  66  81 E14       29.92S
NEBRASKA CITY  CLOUDY    68  67  94 E10       29.94S FOG
BEATRICE       CLOUDY    72  67  86 E7        29.92R
FALLS CITY     CLOUDY    70  67  90 SE7       29.92S

...NORTHERN KANSAS...

CITY           SKY/WX    TMP DP  RH WIND       PRES   REMARKS
GOODLAND       SUNNY     84  55  36 N12       30.04F
HILL CITY      LGT RAIN  90  57  32 N10       29.93F
NORTON         PTCLDY    81  55  41 N10       29.94F
PHILLIPSBURG   SUNNY     88  59  37 N9G18     29.91F
SMITH CENTER   SUNNY     82  63  51 NW13      29.91S
HAYS           SUNNY     84  61  45 N3        29.92F
RUSSELL        SUNNY     85  63  47 W7        29.90F
CONCORDIA      MOSUNNY   80  67  64 VRB5G21   29.86F
SALINA         SUNNY     84  67  56 W10       29.88F
TOPEKA         CLOUDY    74  69  85 SE6       29.89F



USA.gov is the U.S. government's official web portal to all federal, state and local government web resources and services.